Location: Kampong Paya Jaras Dalam
(3.1833°N, 101.5500°E)
Time: 05:12:23
(UTC+00:00)

Cosmos 1862 - Pass Details

Date: 15 May 2026
Orbit: 464 x 477 km, 82.5° (Epoch: 7 June)

Event Time Altitude Azimuth Distance (km) Brightness Sun altitude
Rises 12:07:01 0° 359° (N) 2,478 6.9 -12.3°
Reaches altitude 10° 12:09:05 10° 2° (N) 1,606 5.9 -12.8°
Maximum altitude 12:12:34 70° 86° (E) 495 2.8 -13.6°
Drops below altitude 10° 12:16:05 10° 170° (S) 1,618 5.4 -14.5°
Enters shadow 12:16:24 - 171° (S) 1,746 5.6 -14.5°
